CAPE
0 0 0 1 0 0 0 0 1 4 4 1 0 0 0 0 0 1 4 19 11 22 19 25 24 13 9
1 0 0 1 1 0 0 0 0 0 1 0 0 0 0 0 0 5 2 5 7 14 14 10 8 6 9
0 1 1 0 0 0 1 1 1 0 0 0 1 2 6 6 6 7 8 6 0 1 2 2 2 6 7
1 0 1 1 1 0 0 0 0 0 0 1 0 0 0 0 0 0 0 0 0 0 0 0 0 4 4
0 1 1 0 0 0 0 0 0 0 0 0 0 0 0 0 0 0 0 0 0 0 0 0 0 4 5
0 0 0 0 0 0 0 0 0 0 0 0 0 0 0 0 0 0 0 0 0 0 0 0 3 5 5
0 0 0 0 0 0 0 0 0 0 0 0 0 0 0 0 0 0 0 0 0 0 1 2 4 2 0
0 0 0 0 0 0 0 0 0 0 0 0 0 0 0 0 0 0 0 0 0 0 1 4 3 4 0
0 0 0 0 0 0 0 0 0 0 0 0 0 0 0 0 0 0 0 0 0 1 4 6 1 0 3
0 0 0 0 0 0 0 0 0 0 0 0 0 0 0 0 0 0 0 0 0 0 1 0 1 2 0
0 0 0 0 0 0 0 0 0 0 0 0 0 0 0 0 0 0 0 0 0 0 0 0 0 0 0
0 0 0 0 0 0 0 0 0 0 0 0 0 0 2 2 0 0 0 0 0 0 0 0 0 0 1
0 0 0 0 0 0 0 0 0 0 0 0 0 0 0 2 1 1 1 0 0 0 0 0 0 0 0
0 0 0 0 0 1 0 0 0 0 0 0 0 0 0 1 1 1 0 0 0 0 0 0 0 0 0
0 0 0 0 0 0 0 0 0 0 0 0 0 0 0 0 0 1 0 0 0 0 0 0 0 0 0
0 0 0 0 0 0 0 0 0 0 0 0 0 0 1 0 0 0 0 0 0 0 0 1 0 0 0
0 0 0 0 0 0 0 0 0 0 0 0 0 0 0 0 0 0 0 0 0 0 0 0 0 0 0
CIN
0 0 0 0 0 0 0 0 0 0 0 0 0 0 0 0 0 0 0 0 0 0 0 0 0 0 0
0 0 0 0 0 0 0 0 0 0 0 0 0 0 0 0 0 0 0 0 0 0 0 0 0 0 0
0 0 0 0 0 0 0 0 0 0 0 0 0 0 0 0 0 0 0 0 0 0 0 0 0 0 -1
0 0 0 0 0 0 0 0 0 0 0 0 0 0 0 0 0 0 0 0 0 0 0 0 0 -1 -1
0 0 0 0 0 0 0 0 0 0 0 0 0 0 0 0 0 0 0 0 0 0 0 0 0 0 0
0 0 0 0 0 0 0 0 0 0 0 0 0 0 0 0 0 0 0 0 0 0 0 0 0 0 0
0 0 0 0 0 0 0 0 0 0 0 0 0 0 0 0 0 0 0 0 0 0 0 0 0 0 -1
0 0 0 0 0 0 0 0 0 0 0 0 0 0 0 0 0 0 0 0 0 0 0 0 0 0 0
0 0 0 0 0 0 0 0 0 0 0 0 0 0 0 0 0 0 0 0 0 0 0 0 0 0 0
0 0 0 0 0 0 0 0 0 0 0 0 0 0 0 0 0 0 0 0 0 0 0 0 0 0 0
0 0 0 0 0 0 0 0 0 0 0 0 0 0 0 0 0 0 0 0 0 0 0 0 0 0 0
0 0 0 0 0 0 0 0 0 0 0 0 0 0 0 0 0 0 0 0 0 0 0 0 0 0 0
0 0 0 0 0 0 0 0 0 0 0 0 0 0 0 0 0 0 0 0 0 0 0 0 0 0 0
0 0 0 0 0 0 0 0 0 0 0 0 0 0 0 0 0 0 0 0 0 0 0 0 0 0 0
0 0 0 0 0 0 0 0 0 0 0 0 0 0 0 0 0 0 0 0 0 0 0 0 0 0 0
0 0 0 0 0 0 0 0 0 0 0 0 0 0 0 0 0 0 0 0 0 0 0 0 0 0 0
0 0 0 0 0 0 0 0 0 0 0 0 0 0 0 0 0 0 0 0 0 0 0 0 0 0 0
Wind_Speed
22 25 24 23 23 22 24 23 21 23 19 14 16 23 24 25 22 25 23 23 25 27 27 28 24 25 27
22 24 22 22 22 21 21 21 21 21 23 20 13 26 28 28 30 29 26 25 26 26 25 26 29 30 28
21 21 20 22 21 21 21 20 19 19 18 18 18 17 23 23 24 25 23 21 23 25 27 28 29 28 29
20 21 20 21 21 22 22 21 21 20 19 18 17 17 16 18 20 22 23 23 24 26 28 29 29 29 29
21 21 21 22 23 22 21 21 20 21 21 20 20 19 18 20 21 22 23 25 26 27 27 25 24 23 23
21 21 22 22 22 22 23 24 23 20 23 22 22 22 22 22 23 23 23 22 20 19 19 20 21 22 24
21 21 22 22 22 23 23 23 23 23 24 23 21 21 19 20 20 19 18 18 17 16 16 18 20 22 24
21 21 21 21 21 21 22 23 23 22 20 22 22 23 21 21 21 20 20 20 18 17 16 17 21 23 25
22 22 22 22 21 20 22 23 24 22 21 21 22 26 23 20 18 18 21 22 22 19 19 20 22 25 26
23 22 22 21 21 20 20 22 22 23 20 23 24 26 25 21 19 24 24 24 24 21 22 22 23 24 26
22 21 21 21 21 21 21 20 21 21 22 23 24 27 24 26 26 26 26 24 26 24 25 26 26 25 28
21 21 22 22 22 22 22 21 20 21 23 23 24 24 26 29 27 25 27 28 27 26 27 27 27 26 25
22 22 22 23 23 23 22 22 23 22 21 21 22 25 24 25 27 29 31 27 28 27 26 28 27 25 27
22 22 23 23 24 23 25 27 28 26 23 22 23 23 25 25 26 29 28 27 27 30 30 30 27 24 25
22 23 24 25 25 24 26 28 27 28 28 26 25 24 24 25 28 26 27 28 27 29 29 29 27 24 23
22 23 25 25 26 27 26 27 28 29 29 29 29 30 29 26 18 25 26 26 27 27 27 29 30 26 23
22 23 25 26 27 27 27 27 27 28 28 28 28 28 31 31 27 18 22 25 29 30 28 27 26 28 25
Wind_Direction
347 347 351 360 6 9 354 359 8 14 24 22 339 299 294 297 306 299 305 303 298 296 297 294 303 298 295
347 347 358 5 9 11 10 3 359 354 338 350 5 298 288 295 289 287 298 302 302 299 298 298 293 291 295
349 355 1 3 5 7 8 10 12 4 359 354 346 343 311 303 304 301 307 308 303 300 297 295 295 296 293
353 354 357 360 1 360 359 1 360 2 1 360 356 350 341 328 318 312 308 307 305 302 299 297 295 294 291
350 352 352 352 351 354 354 354 355 352 348 348 345 341 335 326 320 315 311 307 304 302 300 299 299 298 297
350 349 349 349 350 349 348 346 345 353 345 341 337 331 327 323 319 315 313 311 310 309 306 302 300 298 297
350 349 346 346 346 346 346 345 343 343 341 338 343 339 340 335 331 327 322 318 314 311 307 304 301 299 297
352 349 348 349 349 348 346 345 344 346 349 342 344 340 340 335 331 327 322 316 311 310 309 306 302 299 297
349 347 347 348 349 349 346 344 344 346 348 345 342 338 338 339 340 336 330 326 322 315 309 305 301 299 298
349 350 350 351 353 352 349 345 345 344 348 343 339 339 335 338 336 328 325 322 319 316 312 307 305 303 301
351 353 354 355 355 355 353 350 345 341 342 341 336 333 333 329 329 327 323 323 321 316 309 303 300 300 300
352 352 352 351 351 350 349 349 345 339 335 335 332 332 329 326 326 328 324 321 319 316 312 307 304 301 298
348 347 349 347 347 346 346 347 343 339 336 333 330 329 328 325 324 322 322 324 318 315 313 311 309 309 303
345 346 346 347 345 346 342 341 339 339 341 337 334 331 327 324 322 319 320 319 318 313 312 311 311 309 305
344 342 342 342 341 343 340 339 337 335 334 335 335 330 326 323 321 318 318 316 315 314 314 313 313 312 309
342 341 340 339 338 337 338 336 334 333 332 333 333 332 332 329 315 320 320 319 319 318 316 314 313 315 311
341 340 339 338 337 337 336 335 334 333 333 334 333 332 329 327 331 319 320 322 319 317 317 316 315 314 316